Location: Alta
(39.2070°N, 120.8111°W)
Time: 07:00:20
(UTC+00:00)

CZ-4B DEB - Pass Details

Date: 07 December 2023
Orbit: 838 x 858 km, 99.0° (Epoch: 02 March)

Event Time Altitude Azimuth Distance (km) Brightness Sun altitude
Rises 03:03:26 0° 165° (SSE) 3,411 7.3 -27.0°
Reaches altitude 10° 03:05:48 10° 166° (SSE) 2,481 6.6 -27.5°
Enters shadow 03:06:45 16° 166° (SSE) 2,108 6.2 -27.7°
Exits shadow 03:11:24 86° 290° (WNW) 865 4.1 -28.6°
Drops below altitude 10° 03:16:54 10° 346° (NNW) 2,501 6.7 -29.6°
Sets 03:19:17 0° 346° (NNW) 3,441 7.5 -30.1°
